Bigfork, MN

1:57 AM CDT on July 29, 2016 (GMT -0500)
Bigfork Municipal

Weather History for KFOZ - March, 2012

Change the Weather History Date:

Friday, March 2, 2012

  Actual Average (KGPZ) Record (KGPZ)
Temperature  
Mean Temperature 30 °F -  
Max Temperature 35 °F 33 °F 59 °F (1993)
Min Temperature 26 °F 9 °F -35 °F (1916)
Degree Days  
Heating Degree Days 34    
Moisture  
Dew Point 26 °F    
Average Humidity 84    
Maximum Humidity 93    
Minimum Humidity 56    
Precipitation  
Precipitation 0.02 in - - ()
Sea Level Pressure  
Sea Level Pressure 29.57 in    
Wind  
Wind Speed 6 mph (South)    
Max Wind Speed 10 mph    
Max Gust Speed -    
Visibility 7 miles    
Events Snow    
Averages and records for this station are not official NWS values.
T = Trace of Precipitation, MM = Missing Value Source: NWS Daily Summary

Daily Weather History Graph

Daily Weather History Graph

Search for Another Location

Airport or City:

Trip Planner

Search our weather history database for the weather conditions in past years. The results will help you decide how hot, cold, wet, or windy it might be!

Date:

Astronomy

Mar. 02, 2012 Rise Set
Actual Time 6:52 AM CST 6:01 PM CST
Civil Twilight 6:21 AM CST 6:32 PM CST
Nautical Twilight 5:45 AM CST 7:08 PM CST
Astronomical Twilight 5:09 AM CST 7:44 PM CST
Moon 11:54 AM CST (3/2) 3:03 AM CST (3/2)
Length of Visible Light 12h 11m
Length of Day
11h 09m
Waxing Gibbous, 66% of the Moon is Illuminated
Mar 2
Waxing Gibbous
Mar 8
Full
Mar 14
Last Quarter
Mar 22
New
Mar 30
First Quarter

Hourly Weather History & Observations

Time (CST) Temp. Windchill Dew Point Humidity Pressure Visibility Wind Dir Wind Speed Gust Speed Precip Events Conditions
12:14 AM 30.2 °F 25.4 °F 28.4 °F 93% 29.67 in 7.0 mi SE 4.6 mph - 0.01 in Snow Light Snow
12:34 AM 30.2 °F 24.3 °F 28.4 °F 93% 29.66 in 10.0 mi SE 5.8 mph - 0.01 in Snow Light Snow
12:54 AM 30.2 °F 25.4 °F 28.4 °F 93% 29.65 in 10.0 mi SE 4.6 mph - N/A   Overcast
1:15 AM 30.2 °F 25.4 °F 28.4 °F 93% 29.64 in 10.0 mi SSE 4.6 mph - N/A   Overcast
1:34 AM 30.2 °F 25.4 °F 28.4 °F 93% 29.64 in 10.0 mi SSE 4.6 mph - N/A   Overcast
1:54 AM 30.2 °F 24.3 °F 28.4 °F 93% 29.64 in 10.0 mi SSE 5.8 mph - N/A   Overcast
2:14 AM 30.2 °F 25.4 °F 28.4 °F 93% 29.64 in 5.0 mi SSE 4.6 mph - N/A Snow Light Snow
2:34 AM 30.2 °F 24.3 °F 28.4 °F 93% 29.63 in 5.0 mi South 5.8 mph - N/A Snow Light Snow
2:54 AM 30.2 °F 24.3 °F 28.4 °F 93% 29.63 in 10.0 mi South 5.8 mph - N/A   Overcast
3:14 AM 30.2 °F 24.3 °F 28.4 °F 93% 29.62 in 5.0 mi South 5.8 mph - N/A   Overcast
3:34 AM 30.2 °F 24.3 °F 28.4 °F 93% 29.62 in 5.0 mi South 5.8 mph - N/A Snow Light Snow
3:54 AM 30.2 °F 23.4 °F 28.4 °F 93% 29.62 in 7.0 mi SSW 6.9 mph - N/A   Overcast
4:14 AM 30.2 °F 24.3 °F 28.4 °F 93% 29.62 in 7.0 mi SW 5.8 mph - N/A   Overcast
4:34 AM 30.2 °F 24.3 °F 28.4 °F 93% 29.62 in 7.0 mi SSW 5.8 mph - N/A   Overcast
4:54 AM 30.2 °F 25.4 °F 28.4 °F 93% 29.61 in 7.0 mi South 4.6 mph - N/A   Overcast
5:14 AM 30.2 °F 23.4 °F 28.4 °F 93% 29.61 in 7.0 mi South 6.9 mph - N/A   Overcast
5:36 AM 30.2 °F 24.3 °F 28.4 °F 93% 29.61 in 7.0 mi SSE 5.8 mph - N/A   Overcast
5:54 AM 30.2 °F 25.4 °F 26.6 °F 86% 29.61 in 7.0 mi South 4.6 mph - N/A   Overcast
6:14 AM 30.2 °F 23.4 °F 28.4 °F 93% 29.61 in 7.0 mi South 6.9 mph - N/A   Overcast
6:34 AM 30.2 °F 24.3 °F 26.6 °F 86% 29.61 in 7.0 mi South 5.8 mph - N/A   Overcast
6:55 AM 30.2 °F 23.4 °F 26.6 °F 86% 29.61 in 7.0 mi South 6.9 mph - N/A   Overcast
7:14 AM 30.2 °F 24.3 °F 26.6 °F 86% 29.60 in 7.0 mi South 5.8 mph - N/A   Overcast
7:34 AM 30.2 °F 23.4 °F 26.6 °F 86% 29.60 in 7.0 mi South 6.9 mph - N/A   Overcast
7:54 AM 30.2 °F 25.4 °F 26.6 °F 86% 29.60 in 7.0 mi SSW 4.6 mph - N/A   Overcast
8:14 AM 30.2 °F 23.4 °F 26.6 °F 86% 29.60 in 7.0 mi South 6.9 mph - N/A   Overcast
8:34 AM 30.2 °F 22.6 °F 26.6 °F 86% 29.60 in 7.0 mi South 8.1 mph - N/A   Overcast
8:54 AM 30.2 °F 21.3 °F 26.6 °F 86% 29.60 in 7.0 mi SSW 10.4 mph - N/A   Overcast
9:14 AM 30.2 °F 21.9 °F 26.6 °F 86% 29.60 in 10.0 mi South 9.2 mph - N/A   Overcast
9:34 AM 30.2 °F 24.3 °F 26.6 °F 86% 29.59 in 7.0 mi South 5.8 mph - N/A   Overcast
9:54 AM 30.2 °F 23.4 °F 26.6 °F 86% 29.59 in 7.0 mi South 6.9 mph - N/A   Overcast
10:14 AM 32.0 °F 26.4 °F 26.6 °F 80% 29.58 in 10.0 mi South 5.8 mph - N/A   Overcast
10:34 AM 32.0 °F 26.4 °F 26.6 °F 80% 29.57 in 10.0 mi South 5.8 mph - N/A   Overcast
10:54 AM 33.8 °F 29.6 °F 26.6 °F 75% 29.57 in 10.0 mi SSE 4.6 mph - N/A   Overcast
11:16 AM 33.8 °F 30.8 °F 26.6 °F 75% 29.56 in 10.0 mi SSE 3.5 mph - N/A   Mostly Cloudy
11:34 AM 33.8 °F 28.6 °F 24.8 °F 70% 29.56 in 10.0 mi SSE 5.8 mph - N/A   Mostly Cloudy
11:54 AM 35.6 °F 29.2 °F 24.8 °F 65% 29.55 in 10.0 mi South 8.1 mph - N/A   Mostly Cloudy
12:14 PM 33.8 °F 29.6 °F 24.8 °F 70% 29.55 in 10.0 mi South 4.6 mph - N/A   Mostly Cloudy
12:34 PM 35.6 °F 29.2 °F 24.8 °F 65% 29.54 in 10.0 mi South 8.1 mph - N/A   Overcast
12:54 PM 35.6 °F 31.7 °F 24.8 °F 65% 29.53 in 10.0 mi South 4.6 mph - N/A   Overcast
1:14 PM 35.6 °F 30.7 °F 24.8 °F 65% 29.52 in 10.0 mi SSE 5.8 mph - N/A   Overcast
1:34 PM 35.6 °F 29.9 °F 24.8 °F 65% 29.52 in 10.0 mi SE 6.9 mph - N/A   Overcast
2:14 PM 35.6 °F 29.2 °F 23.0 °F 60% 29.51 in 10.0 mi SSE 8.1 mph - N/A   Overcast
2:54 PM 35.6 °F 29.2 °F 21.2 °F 56% 29.50 in 10.0 mi SE 8.1 mph - N/A   Mostly Cloudy
3:34 PM 35.6 °F 29.9 °F 21.2 °F 56% 29.50 in 10.0 mi SSE 6.9 mph - N/A   Overcast
3:54 PM 33.8 °F 26.4 °F 21.2 °F 60% 29.51 in 10.0 mi South 9.2 mph - N/A   Overcast
4:14 PM 33.8 °F 27.7 °F 24.8 °F 70% 29.51 in 5.0 mi SSW 6.9 mph - N/A Snow Light Snow
4:34 PM 32.0 °F 25.6 °F 26.6 °F 80% 29.51 in 3.0 mi SSW 6.9 mph - N/A Snow Light Snow
4:54 PM 30.2 °F 23.4 °F 26.6 °F 86% 29.52 in 2.0 mi WSW 6.9 mph - N/A Snow Light Snow
5:14 PM 30.2 °F 25.4 °F 26.6 °F 86% 29.52 in 1.5 mi WSW 4.6 mph - N/A Snow Light Snow
5:34 PM 28.4 °F 21.2 °F 26.6 °F 93% 29.52 in 2.0 mi WSW 6.9 mph - N/A Snow Light Snow
5:54 PM 28.4 °F 22.2 °F 24.8 °F 86% 29.53 in 3.0 mi WSW 5.8 mph - N/A Snow Light Snow
6:15 PM 28.4 °F - 24.8 °F 86% 29.53 in 2.0 mi Calm Calm - N/A Snow Light Snow
6:34 PM 28.4 °F 24.6 °F 24.8 °F 86% 29.53 in 1.8 mi WSW 3.5 mph - N/A Snow Light Snow
6:54 PM 28.4 °F 23.3 °F 26.6 °F 93% 29.53 in 2.5 mi West 4.6 mph - 0.01 in Snow Light Snow
7:14 PM 28.4 °F 22.2 °F 24.8 °F 86% 29.53 in 2.0 mi West 5.8 mph - 0.01 in Snow Light Snow
7:35 PM 28.4 °F 24.6 °F 24.8 °F 86% 29.53 in 4.0 mi West 3.5 mph - 0.01 in Snow Light Snow
7:54 PM 26.6 °F 22.6 °F 24.8 °F 93% 29.53 in 7.0 mi WSW 3.5 mph - N/A Snow Light Snow
8:14 PM 26.6 °F - 24.8 °F 93% 29.52 in 4.0 mi Calm Calm - N/A Snow Light Snow
8:34 PM 26.6 °F 21.2 °F 24.8 °F 93% 29.52 in 5.0 mi West 4.6 mph - N/A Snow Light Snow
8:54 PM 26.6 °F - 23.0 °F 86% 29.53 in 7.0 mi Calm Calm - N/A Snow Light Snow
9:14 PM 26.6 °F - 23.0 °F 86% 29.53 in 4.0 mi Calm Calm - N/A Snow Light Snow
9:34 PM 26.6 °F - 23.0 °F 86% 29.52 in 2.0 mi Calm Calm - N/A Snow Light Snow
9:54 PM 26.6 °F - 24.8 °F 93% 29.52 in 1.8 mi Calm Calm - N/A Snow Light Snow
10:14 PM 26.6 °F - 23.0 °F 86% 29.52 in 2.5 mi Calm Calm - 0.01 in Snow Light Snow
10:34 PM 26.6 °F - 23.0 °F 86% 29.52 in 4.0 mi Calm Calm - 0.01 in Snow Light Snow
10:54 PM 26.6 °F - 23.0 °F 86% 29.51 in 4.0 mi Calm Calm - N/A Snow Light Snow
11:14 PM 26.6 °F - 23.0 °F 86% 29.51 in 4.0 mi Calm Calm - N/A Snow Light Snow
11:34 PM 26.6 °F - 23.0 °F 86% 29.51 in 3.0 mi Calm Calm - N/A Snow Light Snow
11:54 PM 26.6 °F - 23.0 °F 86% 29.51 in 1.8 mi Calm Calm - N/A Snow Light Snow